EW6762 Weather Reports


Display with metric or nautical units.
time (UTC)temp
F
wind
direction
speed
MPH
gust
MPH
rain 1hr
in
rain 24hr
in
rain mn
in
humidity
%
barometer
mb
20260903073322 81 129 2.0 5.0 0.00 0.00 0.00 86 1017.6
20260903072315 81 146 2.0 5.0 0.00 0.00 0.00 85 1017.7
20260903071334 81 181 2.0 3.0 0.00 0.00 0.00 85 1017.6
20260903070349 82 148 2.0 4.0 0.00 0.00 0.00 85 1017.6
20260903065311 82 178 2.0 4.0 0.00 0.00 0.00 84 1017.4
20260903064323 82 160 1.0 3.0 0.00 0.00 0.00 84 1017.3
20260903063326 82 134 2.0 4.0 0.00 0.00 0.00 83 1017.3
20260903062318 83 173 2.0 4.0 0.00 0.00 0.00 83 1017.3
20260903061311 83 82 2.0 5.0 0.00 0.00 0.00 83 1017.5
20260903060328 83 186 1.0 3.0 0.00 0.00 0.00 82 1017.6
20260903055321 83 130 1.0 3.0 0.00 0.00 0.00 82 1017.6
20260903054320 84 108 2.0 3.0 0.00 0.00 0.00 81 1017.6
20260903053315 84 179 2.0 4.0 0.00 0.00 0.00 81 1017.7
20260903052333 84 72 2.0 5.0 0.00 0.00 0.00 80 1017.7
20260903051326 85 157 2.0 7.0 0.00 0.00 0.00 80 1017.7
20260903050327 85 131 4.0 7.0 0.00 0.00 0.00 80 1017.7
20260903045340 85 145 2.0 5.0 0.00 0.00 0.00 80 1017.7
20260903044317 85 194 2.0 5.0 0.00 0.00 0.00 80 1017.8
20260903043311 85 225 3.0 6.0 0.00 0.00 0.00 80 1017.7
20260903042328 86 150 4.0 7.0 0.00 0.00 0.00 80 1017.7
20260903041321 86 76 2.0 4.0 0.00 0.00 0.00 80 1017.7
20260903040313 86 153 3.0 6.0 0.00 0.00 0.00 79 1017.7
20260903035314 86 136 3.0 8.0 0.00 0.00 0.00 79 1017.8
20260903034313 87 179 4.0 7.0 0.00 0.00 0.00 79 1017.8
20260903033333 87 170 3.0 6.0 0.00 0.00 0.00 79 1017.8
20260903032327 87 149 3.0 5.0 0.00 0.00 0.00 78 1017.8
20260903031331 88 127 3.0 5.0 0.00 0.00 0.00 78 1017.6
20260903030346 88 200 2.0 7.0 0.00 0.00 0.00 77 1017.5
20260903025329 88 159 3.0 6.0 0.00 0.00 0.00 77 1017.3
20260903024325 88 146 3.0 6.0 0.00 0.00 0.00 77 1017.1
20260903023348 88 200 3.0 8.0 0.00 0.00 0.00 76 1017.2
20260903022321 88 140 4.0 8.0 0.00 0.00 0.00 76 1017.1
20260903021344 88 142 5.0 9.0 0.00 0.00 0.00 75 1017.2
20260903020338 88 126 7.0 9.0 0.00 0.00 0.00 74 1017.6
20260903015320 88 142 4.0 7.0 0.00 0.00 0.00 73 1018.0
20260903014314 88 152 3.0 4.0 0.00 0.00 0.00 72 1018.2
20260903013315 89 146 1.0 3.0 0.00 0.00 0.00 72 1018.3
20260903012313 89 281 1.0 2.0 0.00 0.00 0.00 70 1018.4
20260903011337 89 80 1.0 2.0 0.00 0.00 0.00 70 1018.3
20260903010339 90 80 0.0 2.0 0.00 0.00 0.00 69 1018.1
20260903005336 90 81 1.0 2.0 0.00 0.00 0.00 69 1017.9
20260903004314 90 188 1.0 2.0 0.00 0.00 0.00 68 1017.4
20260903003310 90 165 1.0 3.0 0.00 0.00 0.00 69 1017.3
20260903002308 90 184 1.0 3.0 0.00 0.00 0.00 70 1017.2
20260903001313 91 180 2.0 3.0 0.00 0.00 0.00 71 1017.2
20260903000312 91 175 0.0 2.0 0.00 0.00 0.00 70 1017.0
20260902235334 92 154 1.0 2.0 0.00 0.00 0.00 69 1017.0
20260902234328 93 86 1.0 2.0 0.00 0.00 0.00 68 1017.2
20260902233335 93 51 1.0 1.0 0.00 0.00 0.00 67 1017.0
20260902232331 94 71 1.0 2.0 0.00 0.00 0.00 66 1017.0
20260902231328 94 101 0.0 1.0 0.00 0.00 0.00 65 1017.0
20260902230331 95 124 0.0 3.0 0.00 0.00 0.00 65 1017.1
20260902225347 97 78 1.0 3.0 0.00 0.00 0.00 62 1017.0
20260902224330 98 61 1.0 3.0 0.00 0.00 0.00 59 1017.0
20260902223323 99 47 1.0 4.0 0.00 0.00 0.00 57 1017.0
20260902222324 100 35 2.0 4.0 0.00 0.00 0.00 55 1016.9
20260902221320 101 9 1.0 3.0 0.00 0.00 0.00 52 1016.8
20260902220316 102 34 2.0 4.0 0.00 0.00 0.00 51 1016.8
20260902215317 103 17 1.0 5.0 0.00 0.00 0.00 50 1016.9
20260902214309 104 44 2.0 5.0 0.00 0.00 0.00 48 1017.0
20260902213326 104 108 2.0 5.0 0.00 0.00 0.00 49 1017.0
20260902212323 104 85 3.0 5.0 0.00 0.00 0.00 50 1016.9
20260902211342 104 355 3.0 6.0 0.00 0.00 0.00 48 1017.1
20260902210318 104 31 3.0 5.0 0.00 0.00 0.00 50 1017.2
20260902205319 104 9 2.0 6.0 0.00 0.00 0.00 52 1017.2
20260902204314 104 63 4.0 7.0 0.00 0.00 0.00 51 1017.2
20260902203312 103 28 2.0 7.0 0.00 0.00 0.00 53 1017.2
20260902202330 103 84 4.0 6.0 0.00 0.00 0.00 54 1017.2
20260902201349 103 180 2.0 6.0 0.00 0.00 0.00 54 1017.2
20260902200322 102 15 2.0 8.0 0.00 0.00 0.00 55 1017.4
20260902195321 101 27 3.0 5.0 0.00 0.00 0.00 55 1017.5
20260902194317 102 196 2.0 7.0 0.00 0.00 0.00 52 1017.6
20260902193313 103 24 2.0 6.0 0.00 0.00 0.00 53 1017.6
20260902192313 104 61 5.0 6.0 0.00 0.00 0.00 50 1017.7
20260902191335 104 123 2.0 7.0 0.00 0.00 0.00 52 1017.7
20260902190324 104 54 4.0 6.0 0.00 0.00 0.00 54 1017.8
20260902185319 103 82 3.0 5.0 0.00 0.00 0.00 53 1017.9
20260902184346 103 82 3.0 9.0 0.00 0.00 0.00 51 1018.0
20260902183314 103 26 2.0 7.0 0.00 0.00 0.00 54 1018.1
20260902182321 103 32 3.0 7.0 0.00 0.00 0.00 54 1018.2
20260902181322 103 64 2.0 6.0 0.00 0.00 0.00 53 1018.2
20260902180329 103 138 3.0 7.0 0.00 0.00 0.00 51 1018.3
20260902175327 103 183 2.0 8.0 0.00 0.00 0.00 55 1018.5
20260902174316 102 49 1.0 6.0 0.00 0.00 0.00 58 1018.5
20260902173330 101 97 1.0 5.0 0.00 0.00 0.00 60 1018.5
20260902172353 101 94 2.0 5.0 0.00 0.00 0.00 59 1018.5
20260902171310 101 34 2.0 7.0 0.00 0.00 0.00 59 1018.7
20260902170326 101 340 2.0 6.0 0.00 0.00 0.00 58 1018.8
20260902165327 101 64 3.0 6.0 0.00 0.00 0.00 59 1018.8
20260902164336 101 165 2.0 6.0 0.00 0.00 0.00 61 1018.9
20260902163332 100 145 4.0 8.0 0.00 0.00 0.00 60 1019.0
20260902162331 100 30 2.0 6.0 0.00 0.00 0.00 61 1019.1
20260902161321 100 28 3.0 8.0 0.00 0.00 0.00 59 1019.1
20260902160311 100 146 2.0 8.0 0.00 0.00 0.00 59 1019.2
20260902155326 99 166 2.0 7.0 0.00 0.00 0.00 60 1019.2
20260902154323 98 99 3.0 6.0 0.00 0.00 0.00 62 1019.2
20260902153313 97 350 2.0 5.0 0.00 0.00 0.00 63 1019.3
20260902152330 96 69 2.0 5.0 0.00 0.00 0.00 67 1019.2
20260902151320 95 131 2.0 4.0 0.00 0.00 0.00 67 1019.1
20260902150316 94 338 2.0 4.0 0.00 0.00 0.00 69 1019.0
20260902145324 93 5 3.0 4.0 0.00 0.00 0.00 69 1019.0
20260902144325 92 347 1.0 3.0 0.00 0.00 0.00 71 1018.9
20260902143334 91 42 2.0 4.0 0.00 0.00 0.00 73 1018.9
20260902142311 90 215 2.0 5.0 0.00 0.00 0.00 73 1019.0
20260902141328 90 255 3.0 6.0 0.00 0.00 0.00 74 1018.8
20260902140325 89 340 2.0 3.0 0.00 0.00 0.00 77 1018.8
20260902135320 89 225 3.0 4.0 0.00 0.00 0.00 76 1018.9
20260902134341 88 261 2.0 3.0 0.00 0.00 0.00 78 1018.9
20260902133335 87 310 2.0 4.0 0.00 0.00 0.00 78 1018.9
20260902132309 86 261 2.0 4.0 0.00 0.00 0.00 80 1018.9
20260902131317 85 244 3.0 4.0 0.00 0.00 0.00 81 1018.9
20260902130332 85 259 3.0 6.0 0.00 0.00 0.00 82 1019.0
20260902125334 84 250 2.0 5.0 0.00 0.00 0.00 85 1018.9
20260902124311 83 256 4.0 6.0 0.00 0.00 0.00 86 1019.0
20260902123334 82 215 4.0 7.0 0.00 0.00 0.00 86 1019.1
20260902122310 81 223 5.0 8.0 0.00 0.00 0.00 87 1019.1
20260902121336 81 279 4.0 8.0 0.00 0.00 0.00 88 1019.1
20260902120329 80 223 4.0 7.0 0.00 0.00 0.00 89 1019.1
20260902115325 80 265 4.0 6.0 0.00 0.00 0.00 89 1019.2
20260902114329 80 223 2.0 6.0 0.00 0.00 0.00 89 1019.2
20260902113350 79 248 2.0 4.0 0.00 0.00 0.00 90 1019.2
20260902112323 79 242 2.0 4.0 0.00 0.00 0.00 90 1019.1
20260902111342 79 257 2.0 4.0 0.00 0.00 0.00 89 1019.1
20260902110313 79 188 2.0 7.0 0.00 0.00 0.00 89 1018.8
20260902105333 79 259 3.0 4.0 0.00 0.00 0.00 89 1018.8
20260902104330 79 242 3.0 5.0 0.00 0.00 0.00 89 1018.7
20260902103350 80 251 2.0 5.0 0.00 0.00 0.00 88 1018.7
20260902102332 80 201 2.0 5.0 0.00 0.00 0.00 88 1018.7
20260902101324 80 194 3.0 5.0 0.00 0.00 0.00 88 1018.7
20260902100318 80 255 3.0 7.0 0.00 0.00 0.00 88 1018.6
20260902095338 80 223 3.0 5.0 0.00 0.00 0.00 87 1018.6
20260902094311 80 244 3.0 5.0 0.00 0.00 0.00 87 1018.5
20260902093312 80 210 3.0 7.0 0.00 0.00 0.00 87 1018.6
20260902092310 80 237 2.0 6.0 0.00 0.00 0.00 86 1018.7
20260902091331 81 233 3.0 8.0 0.00 0.00 0.00 86 1018.6
20260902090324 81 219 2.0 6.0 0.00 0.00 0.00 85 1018.5
20260902085318 81 236 3.0 7.0 0.00 0.00 0.00 85 1018.5
20260902084337 81 254 2.0 7.0 0.00 0.00 0.00 85 1018.5
20260902083310 81 217 3.0 5.0 0.00 0.00 0.00 84 1018.5
20260902082331 81 219 3.0 9.0 0.00 0.00 0.00 84 1018.4
20260902081314 81 196 3.0 7.0 0.00 0.00 0.00 84 1018.3
20260902080311 81 229 4.0 8.0 0.00 0.00 0.00 84 1018.4
20260902075334 81 206 4.0 8.0 0.00 0.00 0.00 83 1018.4
20260902074309 81 150 3.0 7.0 0.00 0.00 0.00 83 1018.4